Regional Weather Roundup
Issued by NWS

Home | Current Version | Previous Version | Text Only | Print | Product List | Glossary On
Versions: 1 2 3 4 5 6 7 8 9 10 11 12 13 14 15 16 17 18 19 20 21 22 23 24 25 26 27 28 29 30 31 32 33 34 35 36 37 38 39 40 41 42 43 44 45 46 47 48 49 50
000
ASUS45 KREV 311810
RWRNV
NEVADA REGIONAL WEATHER ROUNDUP
NATIONAL WEATHER SERVICE RENO NV
1100 AM PDT FRI JUL 31 2015

NOTE: "FAIR" INDICATES FEW OR NO CLOUDS BELOW 12,000 FEET WITH NO
SIGNIFICANT WEATHER AND/OR OBSTRUCTIONS TO VISIBILITY.

NVZ001-003-004-311900-
WESTERN NEVADA

CITY           SKY/WX    TMP DP  RH WIND       PRES   REMARKS
RENO           CLOUDY    85  40  20 E6        30.23S
6HR MIN TEMP:  70; 6HR MAX TEMP:  86;

CARSON CITY    FAIR      82  37  20 S5        30.25R
MINDEN         FAIR      81  41  24 S3        30.26R
SLIDE MTN        N/A     64  37  36 E5          N/A
PYRAMID LAKE     N/A     81 N/A N/A N5          N/A
FALLON         PTSUNNY   87  35  15 S6        30.19R
6HR MIN TEMP:  67; 6HR MAX TEMP:  88;

LOVELOCK       PTSUNNY   91  26   9 N6        30.17F
6HR MIN TEMP:  57; 6HR MAX TEMP:  91;

HAWTHORNE      SUNNY     84  39  20 CALM      30.21F
$$

NVZ002-CAZ072-073-311900-
NORTHERN AND CENTRAL SIERRA

CITY           SKY/WX    TMP DP  RH WIND       PRES   REMARKS
S. LAKE TAHOE  PTSUNNY   79  45  29 N8        30.36S
6HR MIN TEMP:  58; 6HR MAX TEMP:  81; 6HR PCP: TRACE;

TRUCKEE        PTSUNNY   73  45  35 NE5       30.36S
SQUAW VLY 8000   N/A     68  37  32 E1          N/A
SUSANVILLE     SUNNY     88  34  14 CALM      30.21S
BLUE CANYON    CLOUDY    75  46  35 CALM      30.31S
MAMMOTH LAKES  FAIR      70  46  43 NE8       30.45R
BRIDGEPORT     CLOUDY    66  45  46 VRB5      30.43R
$$

NVZ030-031-036-311900-
NORTHERN NEVADA

CITY           SKY/WX    TMP DP  RH WIND       PRES   REMARKS
ELKO           SUNNY     83  28  13 CALM      30.29F
6HR MIN TEMP:  52; 6HR MAX TEMP:  83;

WINNEMUCCA     NOT AVBL
WENDOVER       SUNNY     86  34  15 E9        30.24S
$$

NVZ035-037-311900-
CENTRAL NEVADA

CITY           SKY/WX    TMP DP  RH WIND       PRES   REMARKS
ELY            MOSUNNY   85  23  10 N13       30.37F
6HR MIN TEMP:  49; 6HR MAX TEMP:  85;

EUREKA           N/A     85  23  10 VRB3      30.33F
6HR MIN TEMP:  51; 6HR MAX TEMP:  85;

$$

NVZ013-014-311900-
SOUTH CENTRAL NEVADA

CITY           SKY/WX    TMP DP  RH WIND       PRES   REMARKS
TONOPAH        CLOUDY    83  35  18 N15       30.29F
6HR MIN TEMP:  66; 6HR MAX TEMP:  83;

$$

NVZ017-020-022-311900-
SOUTHERN NEVADA

CITY           SKY/WX    TMP DP  RH WIND       PRES   REMARKS
LAS VEGAS      MOSUNNY   97  51  21 E10       30.01S
6HR MIN TEMP:  88; 6HR MAX TEMP:  97;

N. LAS VEGAS   MOSUNNY   97  53  22 VRB3      30.04S
6HR MIN TEMP:  87; 6HR MAX TEMP:  97;

NELLIS AFB     MOSUNNY   98  56  24 SE10      30.01F
6HR MIN TEMP:  85; 6HR MAX TEMP:  98;

HENDERSON      SUNNY     95  56  26 VRB6      30.08S
6HR MIN TEMP:  85; 6HR MAX TEMP:  96;

MERCURY        PTSUNNY   88  51  28 W5        30.13R
6HR MIN TEMP:  79; 6HR MAX TEMP:  88;

$$


USA.gov is the U.S. government's official web portal to all federal, state and local government web resources and services.